WZZ20VH EPWA-LIMJ

Flight info

Callsign WZZ20VH
Flight time 1h 55m
Altitude 36000
Route EVINA N744 NAVUR DCT PADKA DCT OGDAS DCT UPLAV DCT LEDVA DCT VAMET DCT RIFEN/N0444F370 DCT KOPER DCT NISIL DCT BEROK DCT MIVKI M730 KALMO KALM2P
Aircraft A320/M-SDE1E2E3FGIJ1J4RWXY/LB1

Departure

Time 2026-05-05 13:58
Airport Warsaw Chopin Airport (EPWA)

Arrival

Time 2026-05-05 15:53
Airport Genoa Cristoforo Colombo Airport (LIMJ)
Time Latitude Longitude Altitude Speed Heading
2026-05-05 13:37 52.16611 20.97516 339 ft 0 kts 23°
2026-05-05 13:50 52.16597 20.97506 338 ft 2 kts 23°
2026-05-05 13:50 52.16583 20.97496 338 ft 2 kts 23°
2026-05-05 13:50 52.16569 20.97487 338 ft 2 kts 23°
2026-05-05 13:51 52.16555 20.97477 337 ft 1 kts 23°
2026-05-05 13:51 52.16548 20.97466 337 ft 1 kts 82°
2026-05-05 13:51 52.16549 20.97454 337 ft 1 kts 124°
2026-05-05 13:51 52.16552 20.97447 337 ft 0 kts 115°
2026-05-05 13:54 52.16551 20.97448 337 ft 0 kts 114°
2026-05-05 13:54 52.16549 20.97456 337 ft 1 kts 114°
2026-05-05 13:54 52.16541 20.97486 337 ft 3 kts 114°
2026-05-05 13:55 52.16526 20.97545 337 ft 7 kts 107°
2026-05-05 13:55 52.16502 20.97636 337 ft 9 kts 117°
2026-05-05 13:55 52.16471 20.97738 336 ft 10 kts 115°
2026-05-05 13:55 52.16436 20.97856 335 ft 11 kts 115°
2026-05-05 13:56 52.16399 20.97986 335 ft 13 kts 114°
2026-05-05 13:56 52.16359 20.98130 334 ft 14 kts 116°
2026-05-05 13:56 52.16295 20.98249 334 ft 14 kts 146°
2026-05-05 13:56 52.16214 20.98341 334 ft 13 kts 144°
2026-05-05 13:57 52.16129 20.98395 333 ft 11 kts 209°
2026-05-05 13:57 52.16131 20.98286 333 ft 11 kts 298°
2026-05-05 13:57 52.16257 20.97838 333 ft 79 kts 293°
2026-05-05 13:57 52.16588 20.96661 332 ft 142 kts 295°
2026-05-05 13:58 52.17081 20.94982 625 ft 166 kts 294°
2026-05-05 13:58 52.17589 20.93276 1198 ft 168 kts 292°
2026-05-05 13:58 52.18085 20.91466 1862 ft 170 kts 288°
2026-05-05 13:58 52.18245 20.89567 2460 ft 165 kts 261°
2026-05-05 13:59 52.17738 20.85822 3571 ft 167 kts 255°
2026-05-05 13:59 52.17453 20.83889 3969 ft 180 kts 256°
2026-05-05 14:00 52.16825 20.79379 4720 ft 215 kts 255°
2026-05-05 14:00 52.16588 20.77665 4893 ft 233 kts 256°
2026-05-05 14:00 52.16086 20.74001 5513 ft 257 kts 255°
2026-05-05 14:00 52.15375 20.71191 6048 ft 271 kts 235°
2026-05-05 14:01 52.14041 20.68894 6928 ft 273 kts 219°
2026-05-05 14:01 52.12522 20.66945 7831 ft 274 kts 217°
2026-05-05 14:01 52.10969 20.65014 8684 ft 278 kts 218°
2026-05-05 14:01 52.09403 20.63062 9540 ft 281 kts 218°
2026-05-05 14:02 52.07828 20.61093 10334 ft 285 kts 218°
2026-05-05 14:02 52.06202 20.59052 10789 ft 302 kts 218°
2026-05-05 14:02 52.04465 20.56864 11270 ft 317 kts 219°
2026-05-05 14:02 52.02686 20.54621 12034 ft 321 kts 219°
2026-05-05 14:03 52.00895 20.52367 12837 ft 324 kts 219°
2026-05-05 14:03 51.99111 20.50124 13595 ft 327 kts 219°
2026-05-05 14:03 51.97271 20.47812 14354 ft 331 kts 219°
2026-05-05 14:03 51.95356 20.45737 15064 ft 336 kts 209°
2026-05-05 14:04 51.93129 20.44378 15773 ft 342 kts 196°
2026-05-05 14:04 51.90719 20.43788 16478 ft 347 kts 189°
2026-05-05 14:04 51.88278 20.43422 17140 ft 352 kts 188°
2026-05-05 14:04 51.85833 20.43080 17773 ft 356 kts 188°
2026-05-05 14:05 51.83342 20.42726 18401 ft 360 kts 188°
2026-05-05 14:05 51.80806 20.42354 19020 ft 364 kts 188°
2026-05-05 14:05 51.78308 20.41980 19608 ft 367 kts 189°
2026-05-05 14:05 51.75712 20.41588 20197 ft 371 kts 189°
2026-05-05 14:06 51.73109 20.41194 20764 ft 375 kts 189°
2026-05-05 14:06 51.70498 20.40798 21321 ft 379 kts 189°
2026-05-05 14:06 51.67875 20.40401 22000 ft 379 kts 189°
2026-05-05 14:06 51.65232 20.40001 22601 ft 380 kts 189°
2026-05-05 14:07 51.62553 20.39594 23099 ft 384 kts 189°
2026-05-05 14:07 51.59836 20.39182 23583 ft 388 kts 189°
2026-05-05 14:07 51.57064 20.38762 24066 ft 392 kts 189°
2026-05-05 14:07 51.54255 20.38337 24540 ft 395 kts 189°
2026-05-05 14:08 51.51469 20.37918 24989 ft 399 kts 189°
2026-05-05 14:08 51.48625 20.37490 25432 ft 402 kts 189°
2026-05-05 14:08 51.45754 20.37059 25862 ft 406 kts 189°
2026-05-05 14:08 51.42897 20.36629 26271 ft 409 kts 190°
2026-05-05 14:09 51.40039 20.35775 26655 ft 408 kts 201°
2026-05-05 14:09 51.37353 20.34027 27049 ft 406 kts 212°
2026-05-05 14:09 51.34949 20.31521 27433 ft 405 kts 220°
2026-05-05 14:09 51.32628 20.28708 27813 ft 408 kts 221°
2026-05-05 14:10 51.30329 20.25874 28162 ft 412 kts 221°
2026-05-05 14:10 51.27987 20.23004 28462 ft 417 kts 221°
2026-05-05 14:10 51.25603 20.20105 28623 ft 425 kts 220°
2026-05-05 14:10 51.23121 20.17110 28892 ft 430 kts 220°
2026-05-05 14:11 51.20668 20.14162 29199 ft 433 kts 220°
2026-05-05 14:11 51.18172 20.11173 29551 ft 435 kts 220°
2026-05-05 14:11 51.15676 20.08191 29992 ft 435 kts 220°
2026-05-05 14:11 51.13277 20.05329 30433 ft 434 kts 220°
2026-05-05 14:12 51.10857 20.02444 30847 ft 434 kts 220°
2026-05-05 14:12 51.08432 19.99557 31241 ft 434 kts 220°
2026-05-05 14:12 51.06010 19.96683 31627 ft 434 kts 220°
2026-05-05 14:12 51.03624 19.93848 32001 ft 433 kts 221°
2026-05-05 14:13 51.01287 19.90844 32365 ft 432 kts 225°
2026-05-05 14:13 50.99061 19.87630 32706 ft 430 kts 229°
2026-05-05 14:13 50.96952 19.84351 33029 ft 430 kts 229°
2026-05-05 14:13 50.94806 19.81007 33344 ft 430 kts 229°
2026-05-05 14:14 50.92669 19.77682 33647 ft 430 kts 229°
2026-05-05 14:14 50.90556 19.74402 33937 ft 431 kts 229°
2026-05-05 14:14 50.88403 19.71065 34189 ft 432 kts 229°
2026-05-05 14:14 50.86266 19.67759 34408 ft 433 kts 229°
2026-05-05 14:15 50.84086 19.64390 34632 ft 434 kts 229°
2026-05-05 14:15 50.81929 19.61063 34844 ft 435 kts 229°
2026-05-05 14:15 50.79782 19.57755 35018 ft 436 kts 229°
2026-05-05 14:15 50.77601 19.54401 35195 ft 437 kts 229°
2026-05-05 14:16 50.75408 19.51033 35372 ft 438 kts 229°
2026-05-05 14:16 50.73151 19.47572 35554 ft 438 kts 229°
2026-05-05 14:16 50.70858 19.44062 35738 ft 439 kts 229°
2026-05-05 14:16 50.68656 19.40692 35784 ft 439 kts 229°
2026-05-05 14:17 50.64267 19.33997 35790 ft 440 kts 229°
2026-05-05 14:17 50.59821 19.27232 35791 ft 440 kts 228°
2026-05-05 14:18 50.55335 19.20423 35792 ft 440 kts 228°
2026-05-05 14:18 50.50831 19.13620 35792 ft 440 kts 229°
2026-05-05 14:19 50.46376 19.06906 35792 ft 440 kts 230°
2026-05-05 14:19 50.41970 19.00281 35792 ft 439 kts 231°
2026-05-05 14:20 50.37534 18.93620 35793 ft 438 kts 231°
2026-05-05 14:20 50.33105 18.86979 35793 ft 438 kts 231°
2026-05-05 14:21 50.28676 18.80361 35792 ft 438 kts 231°
2026-05-05 14:21 50.24278 18.73812 35797 ft 438 kts 231°
2026-05-05 14:22 50.19851 18.67238 35809 ft 438 kts 231°
2026-05-05 14:22 50.15408 18.60661 35815 ft 438 kts 231°
2026-05-05 14:23 50.11001 18.54153 35818 ft 438 kts 231°
2026-05-05 14:23 50.06546 18.47596 35819 ft 438 kts 231°
2026-05-05 14:24 50.02098 18.41066 35819 ft 438 kts 231°
2026-05-05 14:24 49.97627 18.34520 35819 ft 438 kts 230°
2026-05-05 14:25 49.93113 18.27978 35818 ft 440 kts 229°
2026-05-05 14:25 49.88359 18.21631 35816 ft 442 kts 228°
2026-05-05 14:26 49.83625 18.15358 35819 ft 442 kts 228°
2026-05-05 14:26 49.78934 18.09162 35818 ft 442 kts 228°
2026-05-05 14:27 49.74228 18.02961 35819 ft 441 kts 228°
2026-05-05 14:27 49.69513 17.96846 35818 ft 444 kts 225°
2026-05-05 14:28 49.64624 17.91004 35819 ft 444 kts 225°
2026-05-05 14:28 49.59741 17.85198 35819 ft 444 kts 225°
2026-05-05 14:29 49.54798 17.79338 35819 ft 444 kts 225°
2026-05-05 14:29 49.49858 17.73495 35819 ft 444 kts 225°
2026-05-05 14:30 49.44906 17.67656 35819 ft 444 kts 225°
2026-05-05 14:30 49.40001 17.61888 35819 ft 444 kts 225°
2026-05-05 14:31 49.35057 17.56090 35819 ft 444 kts 225°
2026-05-05 14:31 49.30159 17.50156 35820 ft 442 kts 227°
2026-05-05 14:32 49.25430 17.44183 35819 ft 442 kts 227°
2026-05-05 14:32 49.20678 17.38200 35819 ft 442 kts 227°
2026-05-05 14:33 49.15856 17.32147 35820 ft 443 kts 226°
2026-05-05 14:33 49.11108 17.26207 35819 ft 443 kts 226°
2026-05-05 14:34 49.06274 17.20179 35816 ft 446 kts 227°
2026-05-05 14:34 49.01328 17.14024 35812 ft 450 kts 227°
2026-05-05 14:35 48.96368 17.07864 35805 ft 455 kts 228°
2026-05-05 14:35 48.91396 17.01703 35802 ft 459 kts 229°
2026-05-05 14:36 48.86407 16.95557 35800 ft 460 kts 230°
2026-05-05 14:36 48.81360 16.89346 35800 ft 462 kts 230°
2026-05-05 14:37 48.76374 16.83232 35800 ft 464 kts 231°
2026-05-05 14:37 48.70987 16.77536 35797 ft 476 kts 223°
2026-05-05 14:38 48.65008 16.72630 35795 ft 483 kts 219°
2026-05-05 14:38 48.58951 16.67907 35789 ft 483 kts 219°
2026-05-05 14:39 48.52933 16.63206 35781 ft 483 kts 219°
2026-05-05 14:39 48.46873 16.58468 35774 ft 483 kts 219°
2026-05-05 14:40 48.40801 16.53729 35769 ft 483 kts 219°
2026-05-05 14:40 48.34694 16.48974 35767 ft 483 kts 219°
2026-05-05 14:41 48.28591 16.44233 35767 ft 484 kts 219°
2026-05-05 14:41 48.22568 16.39570 35782 ft 484 kts 219°
2026-05-05 14:42 48.16495 16.34879 35826 ft 484 kts 219°
2026-05-05 14:42 48.10373 16.30162 35893 ft 485 kts 218°
2026-05-05 14:43 48.04232 16.25447 35944 ft 484 kts 218°
2026-05-05 14:43 47.98055 16.20716 35970 ft 484 kts 218°
2026-05-05 14:44 47.91962 16.16060 35982 ft 484 kts 219°
2026-05-05 14:44 47.85840 16.11396 35985 ft 484 kts 219°
2026-05-05 14:45 47.79665 16.06702 35990 ft 484 kts 219°
2026-05-05 14:45 47.73534 16.02056 35990 ft 484 kts 219°
2026-05-05 14:46 47.67445 15.97452 35991 ft 484 kts 219°
2026-05-05 14:46 47.61346 15.92854 35991 ft 484 kts 219°
2026-05-05 14:47 47.55246 15.88268 35991 ft 484 kts 219°
2026-05-05 14:47 47.49154 15.83700 35990 ft 484 kts 219°
2026-05-05 14:48 47.43036 15.79123 35975 ft 484 kts 219°
2026-05-05 14:48 47.36971 15.74598 35944 ft 484 kts 219°
2026-05-05 14:49 47.30950 15.70120 35911 ft 484 kts 219°
2026-05-05 14:49 47.24873 15.65607 35891 ft 485 kts 219°
2026-05-05 14:50 47.18816 15.61126 35882 ft 484 kts 219°
2026-05-05 14:50 47.12706 15.56615 35878 ft 484 kts 219°
2026-05-05 14:51 47.06623 15.52136 35876 ft 484 kts 219°
2026-05-05 14:51 47.00612 15.47718 35874 ft 486 kts 218°
2026-05-05 14:52 46.94494 15.43226 35875 ft 490 kts 217°
2026-05-05 14:52 46.88266 15.38678 35869 ft 494 kts 217°
2026-05-05 14:53 46.82146 15.33960 35874 ft 489 kts 222°
2026-05-05 14:53 46.76704 15.28055 35876 ft 473 kts 233°
2026-05-05 14:54 46.72231 15.21092 35876 ft 456 kts 244°
2026-05-05 14:54 46.68389 15.13693 35876 ft 453 kts 245°
2026-05-05 14:55 46.64545 15.06262 35878 ft 452 kts 245°
2026-05-05 14:55 46.60735 14.98981 35887 ft 449 kts 245°
2026-05-05 14:56 46.56850 14.91604 35911 ft 446 kts 244°
2026-05-05 14:56 46.53018 14.84356 35950 ft 443 kts 244°
2026-05-05 14:57 46.49149 14.77059 35976 ft 442 kts 244°
2026-05-05 14:57 46.45316 14.69845 35985 ft 442 kts 244°
2026-05-05 14:58 46.41427 14.62546 35989 ft 442 kts 244°
2026-05-05 14:58 46.37553 14.55294 35997 ft 442 kts 244°
2026-05-05 14:59 46.33659 14.48025 36004 ft 442 kts 244°
2026-05-05 14:59 46.29761 14.40766 36008 ft 442 kts 244°
2026-05-05 15:00 46.26505 14.34718 36010 ft 442 kts 243°
2026-05-05 15:00 46.22016 14.26400 36010 ft 443 kts 243°
2026-05-05 15:01 46.18132 14.19225 36010 ft 443 kts 243°
2026-05-05 15:01 46.14341 14.12240 36010 ft 443 kts 243°
2026-05-05 15:02 46.10522 14.05221 36010 ft 443 kts 243°
2026-05-05 15:02 46.06685 13.98185 36010 ft 443 kts 243°
2026-05-05 15:03 46.02819 13.91116 36010 ft 443 kts 243°
2026-05-05 15:03 45.98948 13.84055 36010 ft 443 kts 243°
2026-05-05 15:04 45.95083 13.77024 36010 ft 443 kts 243°
2026-05-05 15:04 45.91181 13.69948 36010 ft 443 kts 243°
2026-05-05 15:05 45.85513 13.59127 36008 ft 433 kts 249°
2026-05-05 15:06 45.82554 13.51621 36009 ft 423 kts 256°
2026-05-05 15:06 45.79908 13.43951 36009 ft 423 kts 256°
2026-05-05 15:07 45.77266 13.36318 36009 ft 424 kts 256°
2026-05-05 15:07 45.74603 13.28658 36010 ft 425 kts 255°
2026-05-05 15:08 45.71932 13.21010 36010 ft 425 kts 255°
2026-05-05 15:08 45.69265 13.13388 36011 ft 422 kts 255°
2026-05-05 15:09 45.66643 13.05922 36011 ft 418 kts 253°
2026-05-05 15:09 45.64013 12.98456 36011 ft 414 kts 253°
2026-05-05 15:10 45.61414 12.91110 36010 ft 411 kts 252°
2026-05-05 15:10 45.58798 12.83740 36007 ft 411 kts 252°
2026-05-05 15:11 45.56175 12.76365 36001 ft 412 kts 252°
2026-05-05 15:11 45.53536 12.68959 35993 ft 412 kts 252°
2026-05-05 15:12 45.50923 12.61650 35988 ft 412 kts 252°
2026-05-05 15:12 45.48322 12.54388 35986 ft 412 kts 252°
2026-05-05 15:13 45.45691 12.47063 35986 ft 412 kts 252°
2026-05-05 15:13 45.43066 12.39777 35985 ft 412 kts 252°
2026-05-05 15:14 45.40420 12.32449 35986 ft 412 kts 252°
2026-05-05 15:14 45.37783 12.25166 35985 ft 412 kts 252°
2026-05-05 15:15 45.35134 12.17874 35985 ft 412 kts 252°
2026-05-05 15:15 45.32468 12.10553 35985 ft 412 kts 252°
2026-05-05 15:16 45.29835 12.03340 35986 ft 413 kts 252°
2026-05-05 15:16 45.27188 11.96111 35985 ft 412 kts 252°
2026-05-05 15:17 45.24522 11.88850 35984 ft 413 kts 252°
2026-05-05 15:17 45.21874 11.81658 35985 ft 412 kts 252°
2026-05-05 15:18 45.19198 11.74413 35985 ft 412 kts 252°
2026-05-05 15:18 45.16534 11.67219 35983 ft 412 kts 252°
2026-05-05 15:19 45.13846 11.60044 35975 ft 413 kts 251°
2026-05-05 15:19 45.11108 11.52891 35961 ft 413 kts 251°
2026-05-05 15:20 45.08355 11.45715 35946 ft 415 kts 251°
2026-05-05 15:20 45.05574 11.38487 35943 ft 416 kts 251°
2026-05-05 15:21 45.02779 11.31236 35944 ft 418 kts 250°
2026-05-05 15:21 44.99585 11.24180 35945 ft 430 kts 242°
2026-05-05 15:22 44.95596 11.17693 35946 ft 442 kts 233°
2026-05-05 15:22 44.90807 11.11940 35951 ft 452 kts 225°
2026-05-05 15:23 44.85629 11.06529 35950 ft 453 kts 225°
2026-05-05 15:23 44.80468 11.01148 35950 ft 452 kts 224°
2026-05-05 15:24 44.75290 10.95740 35943 ft 448 kts 224°
2026-05-05 15:24 44.70178 10.90404 35941 ft 444 kts 224°
2026-05-05 15:25 44.65084 10.85094 35938 ft 441 kts 223°
2026-05-05 15:25 44.60043 10.79852 35934 ft 438 kts 223°
2026-05-05 15:26 44.54973 10.74600 35743 ft 439 kts 223°
2026-05-05 15:26 44.52492 10.72036 35310 ft 436 kts 223°
2026-05-05 15:26 44.50022 10.69486 34758 ft 435 kts 223°
2026-05-05 15:26 44.47574 10.66959 34161 ft 435 kts 223°
2026-05-05 15:27 44.45083 10.64387 33507 ft 436 kts 223°
2026-05-05 15:27 44.42587 10.61812 32826 ft 438 kts 223°
2026-05-05 15:27 44.40109 10.59258 32138 ft 439 kts 223°
2026-05-05 15:27 44.37620 10.56698 31421 ft 441 kts 222°
2026-05-05 15:28 44.35078 10.54087 30689 ft 443 kts 222°
2026-05-05 15:28 44.32562 10.51508 29955 ft 444 kts 222°
2026-05-05 15:28 44.30035 10.48920 29208 ft 446 kts 221°
2026-05-05 15:28 44.27483 10.46314 28672 ft 441 kts 221°
2026-05-05 15:29 44.24963 10.43744 28151 ft 436 kts 221°
2026-05-05 15:29 44.22479 10.41210 27630 ft 432 kts 221°
2026-05-05 15:29 44.20144 10.38496 27064 ft 421 kts 234°
2026-05-05 15:29 44.18600 10.35126 26553 ft 404 kts 253°
2026-05-05 15:30 44.17934 10.31287 26017 ft 391 kts 270°
2026-05-05 15:30 44.18147 10.27561 25490 ft 382 kts 285°
2026-05-05 15:30 44.18866 10.23966 24993 ft 378 kts 288°
2026-05-05 15:30 44.19630 10.20421 24489 ft 375 kts 289°
2026-05-05 15:31 44.20383 10.16902 23992 ft 372 kts 288°
2026-05-05 15:31 44.21119 10.13413 23495 ft 370 kts 288°
2026-05-05 15:31 44.21835 10.09984 23000 ft 368 kts 288°
2026-05-05 15:31 44.22555 10.06519 22503 ft 365 kts 288°
2026-05-05 15:32 44.23254 10.03154 22016 ft 363 kts 288°
2026-05-05 15:32 44.23959 9.99756 21522 ft 361 kts 288°
2026-05-05 15:32 44.24665 9.96336 21019 ft 359 kts 288°
2026-05-05 15:32 44.25367 9.92932 20522 ft 357 kts 288°
2026-05-05 15:33 44.26060 9.89556 20029 ft 355 kts 288°
2026-05-05 15:33 44.26741 9.86234 19541 ft 353 kts 288°
2026-05-05 15:33 44.27412 9.82956 19060 ft 351 kts 288°
2026-05-05 15:33 44.28081 9.79675 18580 ft 348 kts 288°
2026-05-05 15:34 44.28751 9.76388 18100 ft 346 kts 288°
2026-05-05 15:34 44.29402 9.73186 17630 ft 344 kts 288°
2026-05-05 15:34 44.30056 9.69961 17161 ft 342 kts 287°
2026-05-05 15:34 44.30704 9.66771 16694 ft 340 kts 287°
2026-05-05 15:35 44.31341 9.63625 16234 ft 338 kts 287°
2026-05-05 15:35 44.31816 9.60380 15763 ft 337 kts 278°
2026-05-05 15:35 44.31887 9.57157 15308 ft 337 kts 269°
2026-05-05 15:35 44.31633 9.53903 14871 ft 334 kts 265°
2026-05-05 15:36 44.31337 9.50666 14440 ft 332 kts 265°
2026-05-05 15:36 44.30996 9.47446 14134 ft 330 kts 263°
2026-05-05 15:36 44.30638 9.44304 13880 ft 321 kts 263°
2026-05-05 15:36 44.30281 9.41208 13622 ft 313 kts 263°
2026-05-05 15:37 44.29937 9.38219 13367 ft 304 kts 263°
2026-05-05 15:37 44.29605 9.35325 13095 ft 298 kts 263°
2026-05-05 15:37 44.29295 9.32455 12449 ft 304 kts 267°
2026-05-05 15:37 44.29510 9.29493 11447 ft 308 kts 289°
2026-05-05 15:38 44.30523 9.26822 10297 ft 317 kts 302°
2026-05-05 15:38 44.31720 9.24153 9244 ft 320 kts 298°
2026-05-05 15:38 44.32772 9.21274 8327 ft 316 kts 293°
2026-05-05 15:38 44.33635 9.18366 7538 ft 310 kts 290°
2026-05-05 15:39 44.34380 9.15517 7060 ft 295 kts 287°
2026-05-05 15:39 44.35016 9.12771 6590 ft 282 kts 285°
2026-05-05 15:39 44.35602 9.10066 6111 ft 272 kts 285°
2026-05-05 15:39 44.36144 9.07530 5616 ft 263 kts 285°
2026-05-05 15:40 44.36666 9.05107 5036 ft 257 kts 285°
2026-05-05 15:40 44.37183 9.02723 4339 ft 254 kts 285°
2026-05-05 15:40 44.37703 9.00339 3773 ft 248 kts 285°
2026-05-05 15:40 44.38209 8.98027 3561 ft 240 kts 285°
2026-05-05 15:41 44.38647 8.95754 3543 ft 223 kts 272°
2026-05-05 15:41 44.38391 8.93689 3531 ft 217 kts 239°
2026-05-05 15:41 44.37380 8.92166 3538 ft 215 kts 211°
2026-05-05 15:41 44.35978 8.91449 3591 ft 218 kts 189°
2026-05-05 15:42 44.34431 8.91235 4115 ft 221 kts 184°
2026-05-05 15:42 44.32883 8.91133 4447 ft 218 kts 183°
2026-05-05 15:42 44.31373 8.91059 4495 ft 218 kts 182°
2026-05-05 15:42 44.29830 8.91050 4493 ft 218 kts 172°
2026-05-05 15:43 44.28448 8.91913 4482 ft 215 kts 137°
2026-05-05 15:43 44.27617 8.93618 4496 ft 206 kts 117°
2026-05-05 15:43 44.27058 8.95456 4501 ft 206 kts 114°
2026-05-05 15:43 44.26549 8.97320 4501 ft 206 kts 113°
2026-05-05 15:44 44.26044 8.99209 4500 ft 206 kts 112°
2026-05-05 15:44 44.25545 9.01086 4500 ft 206 kts 112°
2026-05-05 15:44 44.25050 9.02952 4500 ft 206 kts 112°
2026-05-05 15:44 44.24548 9.04849 4500 ft 206 kts 112°
2026-05-05 15:45 44.24052 9.06723 4500 ft 206 kts 112°
2026-05-05 15:45 44.23553 9.08611 4500 ft 206 kts 112°
2026-05-05 15:45 44.23100 9.10493 4497 ft 207 kts 101°
2026-05-05 15:45 44.23271 9.12407 4552 ft 196 kts 65°
2026-05-05 15:46 44.24208 9.13721 4512 ft 194 kts 26°
2026-05-05 15:46 44.25481 9.14351 4520 ft 194 kts 14°
2026-05-05 15:46 44.26802 9.14820 4508 ft 194 kts 13°
2026-05-05 15:46 44.28149 9.15080 4488 ft 192 kts 351°
2026-05-05 15:47 44.29406 9.14563 4496 ft 183 kts 335°
2026-05-05 15:47 44.30154 9.14117 4474 ft 170 kts 333°
2026-05-05 15:47 44.31555 9.13229 4479 ft 162 kts 333°
2026-05-05 15:47 44.32608 9.12554 4492 ft 163 kts 333°
2026-05-05 15:48 44.33648 9.11887 4496 ft 163 kts 333°
2026-05-05 15:48 44.34689 9.11201 4495 ft 162 kts 323°
2026-05-05 15:48 44.35428 9.10038 4374 ft 160 kts 295°
2026-05-05 15:48 44.35873 9.08575 3999 ft 163 kts 286°
2026-05-05 15:49 44.36235 9.07072 3653 ft 165 kts 284°
2026-05-05 15:49 44.36579 9.05529 3289 ft 166 kts 284°
2026-05-05 15:49 44.36913 9.03995 2911 ft 165 kts 284°
2026-05-05 15:49 44.37246 9.02457 2569 ft 163 kts 284°
2026-05-05 15:50 44.37575 9.00940 2321 ft 155 kts 284°
2026-05-05 15:50 44.37892 8.99484 2138 ft 152 kts 284°
2026-05-05 15:50 44.38193 8.98104 1911 ft 143 kts 284°
2026-05-05 15:50 44.38486 8.96761 1707 ft 142 kts 284°
2026-05-05 15:51 44.38781 8.95409 1505 ft 142 kts 284°
2026-05-05 15:51 44.39075 8.94061 1303 ft 142 kts 284°
2026-05-05 15:51 44.39373 8.92700 1098 ft 141 kts 284°
2026-05-05 15:51 44.39668 8.91359 895 ft 141 kts 285°
2026-05-05 15:52 44.39986 8.90019 691 ft 141 kts 292°
2026-05-05 15:52 44.40314 8.88679 565 ft 141 kts 283°
2026-05-05 15:52 44.40581 8.87298 317 ft 141 kts 284°
2026-05-05 15:52 44.40850 8.85945 87 ft 140 kts 283°
2026-05-05 15:53 44.41103 8.84643 13 ft 119 kts 286°
2026-05-05 15:53 44.41283 8.83717 9 ft 53 kts 283°
2026-05-05 15:53 44.41368 8.83305 9 ft 18 kts 282°
2026-05-05 15:53 44.41427 8.83146 9 ft 18 kts 317°
2026-05-05 15:54 44.41533 8.83095 9 ft 17 kts 40°
2026-05-05 15:54 44.41524 8.83242 9 ft 16 kts 108°
2026-05-05 15:54 44.41504 8.83400 9 ft 16 kts 102°
2026-05-05 15:54 44.41475 8.83554 9 ft 16 kts 106°
2026-05-05 15:55 44.41443 8.83710 9 ft 16 kts 106°
2026-05-05 15:55 44.41413 8.83865 9 ft 16 kts 104°
2026-05-05 15:55 44.41384 8.84022 9 ft 16 kts 105°
2026-05-05 15:55 44.41352 8.84176 9 ft 16 kts 107°
2026-05-05 15:56 44.41322 8.84329 9 ft 16 kts 104°
2026-05-05 15:56 44.41320 8.84402 10 ft 5 kts 69°
2026-05-05 15:56 44.41343 8.84455 11 ft 8 kts 54°
2026-05-05 15:56 44.41388 8.84539 13 ft 10 kts 53°
2026-05-05 15:57 44.41415 8.84629 15 ft 8 kts 97°
2026-05-05 15:57 44.41402 8.84700 17 ft 7 kts 105°
2026-05-05 15:57 44.41386 8.84778 18 ft 8 kts 105°
2026-05-05 15:57 44.41371 8.84863 19 ft 9 kts 104°
2026-05-05 15:58 44.41349 8.84979 19 ft 10 kts 105°
2026-05-05 15:58 44.41347 8.85076 17 ft 10 kts 35°
2026-05-05 15:58 44.41400 8.85100 17 ft 2 kts 15°
2026-05-05 15:58 44.41409 8.85104 17 ft 0 kts 15°